Regional Weather Roundup
Issued by NWS

Current Version | Previous Version | Text Only | Print | Product List | Glossary On
Versions: 1 2 3 4 5 6 7 8 9 10 11 12 13 14 15 16 17 18 19 20 21 22 23 24 25 26 27 28 29 30 31 32 33 34 35 36 37 38 39 40 41 42 43 44 45 46 47 48 49 50
000
ASUS46 KPQR 211210
RWROR

OREGON REGIONAL WEATHER ROUNDUP
NATIONAL WEATHER SERVICE PORTLAND OR
500 AM PDT TUE OCT 21 2014

NOTE: "FAIR" INDICATES FEW OR NO CLOUDS BELOW 12,000 FEET WITH
NO SIGNIFICANT WEATHER AND/OR OBSTRUCTIONS TO VISIBILITY.

ORZ001>013-211300-
NORTHWEST OREGON


CITY           SKY/WX    TMP DP  RH WIND       PRES   REMARKS
ASTORIA        MOCLDY    56  52  86 S9        29.85R
6HR MIN TEMP:  54; 6HR MAX TEMP:  57; 6HR PCP:  0.28;

NEWPORT        MOCLDY    54  54 100 S14       29.96R FOG
PORTLAND       CLOUDY    56  51  84 S12       29.92R
6HR MIN TEMP:  54; 6HR MAX TEMP:  56; 6HR PCP: TRACE;

VANCOUVER WA   LGT RAIN  56  50  80 S5        29.92R
6HR MIN TEMP:  55; 6HR MAX TEMP:  57; 6HR PCP: TRACE;

SCAPPOOSE      CLOUDY    54  52  93 S6        29.90R
6HR MIN TEMP:  48; 6HR MAX TEMP:  55; 6HR PCP:  0.09;

HILLSBORO      LGT RAIN  54  52  93 S8        29.91R
6HR MIN TEMP:  53; 6HR MAX TEMP:  55; 6HR PCP:  0.04;

AURORA         LGT RAIN  55  49  80 S10       29.93R
6HR MIN TEMP:  53; 6HR MAX TEMP:  56; 6HR PCP:  0.01;

MCMINNVILLE    LGT RAIN  54  51  90 S7        29.93R
6HR MIN TEMP:  54; 6HR MAX TEMP:  56; 6HR PCP:  0.03;

SALEM          LGT RAIN  55  49  80 S13G22    29.93R
6HR MIN TEMP:  54; 6HR MAX TEMP:  56; 6HR PCP: TRACE;

CORVALLIS      CLOUDY    54  50  87 S16       29.96R
EUGENE         CLOUDY    53  49  86 S7        29.98R
6HR MIN TEMP:  51; 6HR MAX TEMP:  54; 6HR PCP:  0.01;

$$

ORZ021-028-211300-
SOUTHWEST OREGON


CITY           SKY/WX    TMP DP  RH WIND       PRES   REMARKS
NORTH BEND     CLOUDY    54  54 100 S8        29.99R
6HR MIN TEMP:  54; 6HR MAX TEMP:  55; 6HR PCP:  0.12;

BROOKINGS      LGT RAIN  53  53 100 VRB7      30.05R FOG
ROSEBURG       CLOUDY    53  47  79 CALM      30.00R
6HR MIN TEMP:  50; 6HR MAX TEMP:  55; 6HR PCP: TRACE;

SEXTON SUMMIT  LGT RAIN  39  39 100 S15G22    30.01R VSB 1/4 WCI  31
6HR MIN TEMP:  39; 6HR MAX TEMP:  40; 6HR PCP:  0.01;

MEDFORD        CLOUDY    48  45  89 CALM      30.04R
6HR MIN TEMP:  47; 6HR MAX TEMP:  51;

$$

ORZ009-041-211300-
COLUMBIA GORGE


CITY           SKY/WX    TMP DP  RH WIND       PRES   REMARKS
TROUTDALE      CLOUDY    57  49  74 SW8       29.91R
6HR MIN TEMP:  49; 6HR MAX TEMP:  58; 6HR PCP:  0.01;

THE DALLES     CLEAR     48  46  93 SE8       29.90R
6HR MIN TEMP:  46; 6HR MAX TEMP:  52;

$$

ORZ029>031-042>050-061>064-211300-
EASTERN OREGON


CITY           SKY/WX    TMP DP  RH WIND       PRES   REMARKS
REDMOND        CLEAR     34  32  92 S6        29.95R WCI  29
6HR MIN TEMP:  32; 6HR MAX TEMP:  44;

BEND           SUNNY     41  36  81 SW12      29.96R
KLAMATH FALLS  PTCLDY    35  33  92 S3        30.05R
6HR MIN TEMP:  35; 6HR MAX TEMP:  41;

LAKEVIEW       CLOUDY    37  34  87 S7        30.05R WCI  32
HERMISTON      MOCLDY    49  45  86 CALM      29.88R
6HR MIN TEMP:  47; 6HR MAX TEMP:  54;

PENDLETON      MOCLDY    49  44  83 S3        29.88S
6HR MIN TEMP:  47; 6HR MAX TEMP:  51; 6HR PCP:  0.01;

JOHN DAY       MOSUNNY   43  42  96 W5        29.93R
MEACHAM        CLOUDY    42  41  96 CALM      29.90R
6HR MIN TEMP:  41; 6HR MAX TEMP:  44; 6HR PCP: TRACE;

LA GRANDE      CLOUDY    48  34  57 NW7       29.89R
6HR MIN TEMP:  48; 6HR MAX TEMP:  52;

BAKER CITY     CLOUDY    44  38  79 SW5       29.91R
6HR MIN TEMP:  40; 6HR MAX TEMP:  50; 6HR PCP: TRACE;

BURNS          MOCLDY    39  36  89 SW12      29.96R WCI  32
6HR MIN TEMP:  35; 6HR MAX TEMP:  45; 6HR PCP: TRACE;

ROME             N/A     47  34  60 SW16G26   29.93R
6HR MIN TEMP:  47; 6HR MAX TEMP:  52; 6HR PCP:  0.01;

ONTARIO        CLOUDY    50  47  89 SE3       29.90R
6HR MIN TEMP:  50; 6HR MAX TEMP:  58; 6HR PCP:  0.12;

$$



USA.gov is the U.S. government's official web portal to all federal, state and local government web resources and services.